Tracking 20945 objects as of 9-Jul-2020
HD Live streaming from Space Station
objects crossing your sky now

TIROS 9


10-day predictions
TIROS 9 is classified as:


NORAD ID: 978
Int'l Code: 1965-004A
Perigee: 711.1 km
Apogee: 2,568.2 km
Inclination: 96.4 °
Period: 118.9 minutes
Semi major axis: 8010 km
RCS: 0.8367 m2 (medium)
Launch date: January 22, 1965
Source: United States (US)
Launch site: AIR FORCE EASTERN TEST RANGE (AFETR)
aabbcc
Your satellite tracking list
Your tracking list is empty




NASA's NSSDC Master Catalog

Two Line Element Set (TLE):
1   978U 65004A   20190.82324946  .00000005  00000-0  18609-4 0  9992
2   978  96.4129 283.9711 1159162  44.5118 324.3383 12.10888481449448
Source of the keplerian elements: AFSPC